Orbital Elements at Epoch 2459000.5 (2020-May-31.0) TDB
Reference: JPL 26 (heliocentric ecliptic J2000)
Element | Value | Uncertainty (1-sigma) | Units |
e | .1823659278983296 | 2.8652e-08 | |
a | 2.194808998180787 | 6.2996e-09 | au |
q | 1.794550618667945 | 6.0987e-08 | au |
i | 3.769173962591199 | 3.2444e-06 | deg |
node | 216.7611558180135 | 6.2064e-05 | deg |
peri | 13.79622586493811 | 6.3366e-05 | deg |
M | 49.49984732901301 | 1.3099e-05 | deg |
tp | 2458837.196729089174 (2019-Dec-19.69672909) | 4.3001e-05 | TDB |
period | 1187.663815145537 3.25 | 5.1133e-06 1.4e-08 | d yr |
n | .3031160799959924 | 1.305e-09 | deg/d |
Q | 2.59506737769363 | 7.4484e-09 | au |
|
| | Orbit Determination Parameters
Additional Information
|